User: anonymous   Login
Location: Muenchen
(48.1800°N, 11.5800°E)
Time: 01:23:24
(UTC+01:00)
Language:

Iridium 37 - Orbit

View from above orbital plane
View from above orbital plane
View from above satellite
View from above satellite

Ground track
Ground track

The orbit data is extracted from the following two-line orbital elements,

1 24968U 97056D   14328.44421961  .00000023  00000-0  11536-5 0   521
2 24968 086.3958 350.0012 0002146 107.8997 252.2432 14.34215421898412
Epoch (UTC): 24 November 2014 10:39:40
Eccentricity: 0.0002146
inclination: 86.3958°
perigee height: 776 km
apogee height: 779 km
right ascension of ascending node: 350.0012°
argument of perigee: 107.8997°
revolutions per day: 14.34215421
mean anomaly at epoch: 252.2432°
orbit number at epoch: 89841

The dashed part of the orbit path shows where the satellite is in the earth's shadow,  

DLR